Date,TemperatureHighF,TemperatureAvgF,TemperatureLowF,DewpointHighF,DewpointAvgF,DewpointLowF,HumidityHigh,HumidityAvg,HumidityLow,PressureMaxIn,PressureMinIn,WindSpeedMaxMPH,WindSpeedAvgMPH,GustSpeedMaxMPH,PrecipitationSumIn
2014-1-1,67,51,37,54,42,28,95,71,57,30.25,30.00,34,12,34,0.00
2014-1-2,51,37,25,38,23,18,80,60,32,30.47,30.16,35,13,35,0.00
2014-1-3,46,29,19,38,21,14,88,75,34,30.46,30.11,32,6,32,0.00
2014-1-4,68,54,42,53,47,38,96,77,50,30.11,29.82,36,14,36,0.00
2014-1-5,57,41,29,55,26,13,92,57,34,30.46,29.81,37,19,37,0.00
2014-1-6,31,24,16,13,3,-7,63,42,21,30.75,30.46,28,10,30,0.00
2014-1-7,45,33,15,26,7,-4,74,38,18,30.60,30.32,27,10,27,0.00
2014-1-8,52,44,36,52,43,26,99,96,57,30.32,30.12,22,6,22,0.05
2014-1-9,70,58,51,60,55,51,99,92,66,30.19,30.01,24,6,24,0.00
2014-1-10,72,63,54,61,58,52,97,82,60,30.01,29.79,31,12,31,0.00
2014-1-11,73,55,40,54,32,13,97,51,11,30.19,29.89,17,5,17,0.00
2014-1-12,65,58,48,59,45,30,93,64,42,30.15,29.92,40,14,40,0.04
2014-1-13,66,54,34,60,32,12,99,51,14,30.18,29.89,38,12,38,0.00
2014-1-14,73,53,35,31,21,12,63,32,10,30.38,30.03,34,11,34,0.00
2014-1-15,63,47,36,30,20,12,74,38,18,30.47,30.17,23,7,27,0.00
2014-1-16,70,53,40,34,25,16,74,36,18,30.25,30.07,27,7,27,0.00
2014-1-17,59,46,33,35,21,10,75,43,17,30.39,30.25,21,5,21,0.00
2014-1-18,64,52,32,42,30,21,73,45,38,30.27,30.11,21,12,21,0.00
2014-1-19,71,55,36,42,25,13,74,40,11,30.36,30.13,8,4,8,0.00
2014-1-20,78,56,47,38,30,19,53,40,18,30.22,29.88,34,7,34,0.00
2014-1-21,57,47,30,28,21,13,79,39,19,30.45,30.22,34,12,34,0.00
2014-1-22,65,50,32,27,22,20,68,37,18,30.24,30.01,16,8,16,0.00
2014-1-23,65,41,22,40,23,16,86,54,18,30.71,30.08,37,20,37,0.00
2014-1-24,41,28,21,22,12,0,83,52,30,30.72,30.35,27,8,27,0.00
2014-1-25,72,48,29,40,25,13,74,47,11,30.36,30.03,14,4,14,0.00
2014-1-26,78,60,43,46,35,19,71,41,19,30.03,29.71,30,9,30,0.00
2014-1-27,52,41,30,32,14,-4,71,37,18,30.29,29.85,40,16,40,0.00
2014-1-28,37,28,23,17,6,-2,67,40,20,30.47,30.26,30,14,30,0.00
2014-1-29,46,32,20,18,10,1,74,43,19,30.48,30.24,30,7,30,0.00
2014-1-30,61,46,30,52,37,13,97,71,44,30.24,29.91,49,17,49,0.02
2014-1-31,76,62,52,60,54,51,98,79,43,29.96,29.83,39,18,39,0.00